When you browse on this site, cookies collect data to enhance your experience and personalize the content and advertising you see.
Visit our Privacy Policy to learn more. By continuing to use the site, you agree to this use of cookies and data.
  • In Deutschland
  • Länderverzeichnis
  • Für 7 Tage
  • Wassertemperatur
  • Satellitenkarten
  • Wetterkarte
  • Widgets
  • user-avatar
    Anmelden

    Stündliche Wetter Maceio

    Heute, 21 Januar, Montag

    Zeit Temperatur Niederschläge Wind Luftdruck Luftfeuchtigkeit
    00:00 +27°C° 0 mm 3 m/S 761 mmHg 86%
    01:00 +27°C° 0 mm 3 m/S 760 mmHg 87%
    02:00 +26°C° 0 mm 3 m/S 760 mmHg 88%
    03:00 +26°C° 0 mm 3 m/S 760 mmHg 88%
    04:00 +26°C° 0 mm 4 m/S 760 mmHg 89%
    05:00 +26°C° 0.1 mm 4 m/S 760 mmHg 88%
    06:00 +27°C° 0.1 mm 4 m/S 760 mmHg 87%
    07:00 +27°C° 0.1 mm 4 m/S 760 mmHg 85%
    08:00 +28°C° 0.1 mm 4 m/S 761 mmHg 78%
    09:00 +30°C° 0.1 mm 4 m/S 761 mmHg 70%
    10:00 +32°C° 0.1 mm 5 m/S 761 mmHg 62%
    11:00 +33°C° 0 mm 5 m/S 761 mmHg 59%
    12:00 +33°C° 0 mm 5 m/S 761 mmHg 56%
    13:00 +34°C° 0 mm 5 m/S 761 mmHg 53%
    14:00 +34°C° 0 mm 5 m/S 760 mmHg 53%
    15:00 +34°C° 0 mm 5 m/S 760 mmHg 53%
    16:00 +34°C° 0 mm 5 m/S 759 mmHg 54%
    17:00 +32°C° 0 mm 5 m/S 759 mmHg 60%
    18:00 +30°C° 0 mm 4 m/S 760 mmHg 66%
    19:00 +28°C° 0 mm 4 m/S 760 mmHg 73%
    20:00 +28°C° 0 mm 4 m/S 760 mmHg 76%
    21:00 +27°C° 0 mm 3 m/S 760 mmHg 78%
    22:00 +27°C° 0 mm 3 m/S 761 mmHg 81%
    23:00 +27°C° 0 mm 3 m/S 761 mmHg 82%

    Morgen, 22 Januar, Dienstag

    Zeit Temperatur Niederschläge Wind Luftdruck Luftfeuchtigkeit
    00:00 +27°C° 0 mm 3 m/S 761 mmHg 82%
    01:00 +26°C° 0 mm 3 m/S 761 mmHg 82%
    02:00 +26°C° 0 mm 3 m/S 760 mmHg 83%
    03:00 +26°C° 0 mm 3 m/S 760 mmHg 83%
    04:00 +26°C° 0 mm 2 m/S 759 mmHg 84%
    05:00 +26°C° 0 mm 2 m/S 760 mmHg 83%
    06:00 +26°C° 0 mm 2 m/S 760 mmHg 82%
    07:00 +27°C° 0 mm 2 m/S 760 mmHg 81%
    08:00 +29°C° 0.1 mm 3 m/S 760 mmHg 72%
    09:00 +30°C° 0.1 mm 3 m/S 760 mmHg 63%
    10:00 +33°C° 0.1 mm 3 m/S 761 mmHg 54%
    11:00 +34°C° 0.1 mm 3 m/S 760 mmHg 52%
    12:00 +35°C° 0.1 mm 4 m/S 760 mmHg 50%
    13:00 +35°C° 0.1 mm 4 m/S 760 mmHg 47%
    14:00 +35°C° 0.1 mm 4 m/S 759 mmHg 49%
    15:00 +35°C° 0.1 mm 4 m/S 759 mmHg 52%
    16:00 +34°C° 0.1 mm 4 m/S 758 mmHg 54%
    17:00 +33°C° 0.1 mm 4 m/S 758 mmHg 60%
    18:00 +30°C° 0.1 mm 4 m/S 759 mmHg 67%
    19:00 +29°C° 0.1 mm 4 m/S 759 mmHg 73%
    20:00 +28°C° 0.2 mm 3 m/S 759 mmHg 76%
    21:00 +28°C° 0.2 mm 3 m/S 760 mmHg 79%
    22:00 +27°C° 0.2 mm 3 m/S 760 mmHg 82%
    23:00 +27°C° 0.6 mm 3 m/S 760 mmHg 83%

    übermorgen, 23 Januar, Mittwoch

    Zeit Temperatur Niederschläge Wind Luftdruck Luftfeuchtigkeit
    00:00 +27°C° 0.6 mm 2 m/S 760 mmHg 84%
    01:00 +27°C° 0.6 mm 2 m/S 760 mmHg 85%
    02:00 +27°C° 1.1 mm 2 m/S 759 mmHg 85%
    03:00 +26°C° 1.1 mm 2 m/S 759 mmHg 85%
    04:00 +26°C° 1.1 mm 2 m/S 758 mmHg 85%
    05:00 +26°C° 0.8 mm 2 m/S 759 mmHg 85%
    06:00 +26°C° 0.8 mm 2 m/S 759 mmHg 85%
    07:00 +26°C° 0.8 mm 2 m/S 759 mmHg 84%
    08:00 +27°C° 0.1 mm 2 m/S 760 mmHg 80%
    09:00 +28°C° 0.1 mm 2 m/S 760 mmHg 75%
    10:00 +29°C° 0.1 mm 2 m/S 760 mmHg 70%
    11:00 +31°C° 0.3 mm 3 m/S 760 mmHg 63%
    12:00 +34°C° 0.3 mm 3 m/S 760 mmHg 55%
    13:00 +36°C° 0.3 mm 4 m/S 760 mmHg 48%
    14:00 +35°C° 0.1 mm 5 m/S 759 mmHg 48%
    15:00 +35°C° 0.1 mm 5 m/S 758 mmHg 47%
    16:00 +35°C° 0.1 mm 6 m/S 758 mmHg 47%
    17:00 +33°C° 0 mm 5 m/S 758 mmHg 54%
    18:00 +30°C° 0 mm 5 m/S 758 mmHg 61%
    19:00 +29°C° 0 mm 4 m/S 759 mmHg 68%
    20:00 +28°C° 0 mm 4 m/S 759 mmHg 72%
    21:00 +28°C° 0 mm 3 m/S 760 mmHg 76%
    22:00 +27°C° 0 mm 3 m/S 760 mmHg 79%
    23:00 +27°C° 0 mm 3 m/S 760 mmHg 81%

    24 Januar, Donnerstag

    Zeit Temperatur Niederschläge Wind Luftdruck Luftfeuchtigkeit
    00:00 +26°C° 0 mm 3 m/S 759 mmHg 82%
    01:00 +26°C° 0 mm 3 m/S 759 mmHg 84%
    02:00 +26°C° 0 mm 3 m/S 759 mmHg 85%
    03:00 +25°C° 0 mm 2 m/S 758 mmHg 87%
    04:00 +25°C° 0 mm 2 m/S 758 mmHg 89%
    05:00 +25°C° 0 mm 2 m/S 758 mmHg 88%
    06:00 +25°C° 0 mm 2 m/S 758 mmHg 88%
    07:00 +25°C° 0 mm 2 m/S 759 mmHg 87%
    08:00 +27°C° 0 mm 2 m/S 759 mmHg 77%
    09:00 +29°C° 0 mm 3 m/S 759 mmHg 66%
    10:00 +33°C° 0 mm 3 m/S 760 mmHg 55%
    11:00 +34°C° 0 mm 3 m/S 759 mmHg 51%
    12:00 +35°C° 0 mm 4 m/S 759 mmHg 47%
    13:00 +36°C° 0 mm 4 m/S 759 mmHg 42%
    14:00 +35°C° 0 mm 4 m/S 758 mmHg 44%
    15:00 +35°C° 0 mm 4 m/S 757 mmHg 45%
    16:00 +34°C° 0 mm 5 m/S 757 mmHg 47%
    17:00 +33°C° 0 mm 4 m/S 757 mmHg 54%
    18:00 +30°C° 0 mm 4 m/S 758 mmHg 61%
    19:00 +28°C° 0 mm 4 m/S 758 mmHg 68%
    20:00 +28°C° 0 mm 3 m/S 758 mmHg 72%
    21:00 +27°C° 0 mm 3 m/S 759 mmHg 76%
    22:00 +26°C° 0 mm 3 m/S 759 mmHg 80%
    23:00 +26°C° 0 mm 3 m/S 759 mmHg 83%

    25 Januar, Freitag

    Zeit Temperatur Niederschläge Wind Luftdruck Luftfeuchtigkeit
    00:00 +26°C° 0 mm 2 m/S 759 mmHg 85%
    01:00 +26°C° 0 mm 2 m/S 759 mmHg 87%
    02:00 +26°C° 0 mm 2 m/S 758 mmHg 86%
    03:00 +26°C° 0 mm 2 m/S 758 mmHg 86%
    04:00 +26°C° 0 mm 2 m/S 758 mmHg 86%
    05:00 +26°C° 0 mm 2 m/S 758 mmHg 84%
    06:00 +26°C° 0 mm 2 m/S 758 mmHg 82%
    07:00 +27°C° 0 mm 2 m/S 759 mmHg 80%
    08:00 +28°C° 0 mm 3 m/S 759 mmHg 74%
    09:00 +30°C° 0 mm 3 m/S 759 mmHg 69%
    10:00 +32°C° 0 mm 4 m/S 760 mmHg 63%
    11:00 +32°C° 0 mm 4 m/S 759 mmHg 62%
    12:00 +32°C° 0 mm 4 m/S 759 mmHg 61%
    13:00 +33°C° 0 mm 4 m/S 758 mmHg 59%
    14:00 +33°C° 0 mm 4 m/S 758 mmHg 59%
    15:00 +33°C° 0 mm 5 m/S 757 mmHg 59%
    16:00 +32°C° 0 mm 5 m/S 757 mmHg 59%
    17:00 +30°C° 0 mm 4 m/S 757 mmHg 64%
    18:00 +29°C° 0 mm 4 m/S 758 mmHg 69%
    19:00 +28°C° 0 mm 3 m/S 758 mmHg 73%
    20:00 +28°C° 0 mm 3 m/S 759 mmHg 77%
    21:00 +27°C° 0 mm 3 m/S 759 mmHg 80%
    22:00 +27°C° 0 mm 3 m/S 760 mmHg 83%
    23:00 +26°C° 0 mm 3 m/S 759 mmHg 84%

    26 Januar, Samstag

    Zeit Temperatur Niederschläge Wind Luftdruck Luftfeuchtigkeit
    00:00 +26°C° 0 mm 3 m/S 759 mmHg 85%
    01:00 +26°C° 0 mm 3 m/S 759 mmHg 86%
    02:00 +26°C° 0 mm 3 m/S 759 mmHg 86%
    03:00 +26°C° 0 mm 3 m/S 759 mmHg 87%
    04:00 +26°C° 0 mm 3 m/S 759 mmHg 88%
    05:00 +26°C° 0 mm 2 m/S 759 mmHg 87%
    06:00 +26°C° 0 mm 2 m/S 759 mmHg 86%
    07:00 +26°C° 0 mm 2 m/S 760 mmHg 85%
    08:00 +28°C° 0 mm 2 m/S 760 mmHg 75%
    09:00 +30°C° 0 mm 3 m/S 760 mmHg 65%
    10:00 +33°C° 0 mm 3 m/S 760 mmHg 54%
    11:00 +34°C° 0 mm 3 m/S 760 mmHg 50%
    12:00 +36°C° 0 mm 4 m/S 760 mmHg 46%
    13:00 +37°C° 0 mm 4 m/S 759 mmHg 42%
    14:00 +36°C° 0 mm 5 m/S 759 mmHg 45%
    15:00 +36°C° 0 mm 5 m/S 758 mmHg 47%
    16:00 +35°C° 0 mm 5 m/S 758 mmHg 50%
    17:00 +33°C° 0 mm 5 m/S 758 mmHg 59%
    18:00 +32°C° 0 mm 5 m/S 758 mmHg 67%
    19:00 +29°C° 0 mm 5 m/S 759 mmHg 76%
    20:00 +28°C° 0.3 mm 5 m/S 759 mmHg 79%
    21:00 +28°C° 0.3 mm 5 m/S 759 mmHg 83%
    22:00 +27°C° 0.3 mm 5 m/S 760 mmHg 86%
    23:00 +27°C° 0.6 mm 4 m/S 760 mmHg 87%
    Mehr zeigen